User: anonymous   Login
Location: Unspecified
(0.0000°N, 0.0000°E)
Time: 14:00:31
(UTC+00:00)
Language:

APRIZESAT 1 (LATINSAT C) - Orbit

View from above orbital plane
View from above orbital plane
View from above satellite
View from above satellite

Ground track
Ground track

The orbit data is extracted from the following two-line orbital elements,

1 28372U 04025G   18050.82918692 +.00000048 +00000-0 +23981-4 0  9991
2 28372 098.2874 359.0525 0047434 053.2335 307.3199 14.49534409721391
Epoch (UTC): 19 February 2018 19:54:01
Eccentricity: 0.0047434
inclination: 98.2874°
perigee height: 693 km
apogee height: 761 km
right ascension of ascending node: 359.0525°
argument of perigee: 53.2335°
revolutions per day: 14.49534409
mean anomaly at epoch: 307.3199°
orbit number at epoch: 72139

The dashed part of the orbit path shows where the satellite is in the earth's shadow,  

DLR